Wetterdaten: Woche 14.08.17 - 20.08.17 (KW33)
Datum Zeit Temp. I. Temp. A. Boden 5 cm Feuchte A. Sonne Luftdruck Regen Wind Sonnenschein
14.08.2017 00:00 22,6 C 22,8 C 17,1 C 99 % 0 % 1024 hPa 0,0 l/m 0,2 km/h (0 Bft) 0,00 h
14.08.2017 01:00 22,0 C 22,8 C 16,7 C 99 % 0 % 1024 hPa 0,0 l/m 0,0 km/h (0 Bft) 0,00 h
14.08.2017 02:00 21,7 C 22,8 C 16,4 C 99 % 0 % 1024 hPa 0,0 l/m 0,0 km/h (0 Bft) 0,00 h
14.08.2017 03:00 21,4 C 22,8 C 16,0 C 99 % 0 % 1024 hPa 0,0 l/m 0,0 km/h (0 Bft) 0,00 h
14.08.2017 04:00 21,1 C 22,8 C 15,7 C 99 % 0 % 1024 hPa 0,0 l/m 0,2 km/h (0 Bft) 0,00 h
14.08.2017 05:00 20,9 C 22,8 C 15,4 C 99 % 0 % 1024 hPa 0,0 l/m 0,0 km/h (0 Bft) 0,00 h
14.08.2017 06:00 20,8 C 22,8 C 15,1 C 99 % 0 % 1024 hPa 0,0 l/m 0,0 km/h (0 Bft) 0,00 h
14.08.2017 07:00 20,9 C 22,8 C 15,4 C 99 % 0 % 1024 hPa 0,0 l/m 0,3 km/h (0 Bft) 0,00 h
14.08.2017 08:00 21,1 C 22,8 C 16,2 C 99 % 0 % 1024 hPa 0,0 l/m 3,1 km/h (1 Bft) 0,00 h
14.08.2017 09:00 21,4 C 22,8 C 17,3 C 99 % 0 % 1024 hPa 0,0 l/m 6,4 km/h (2 Bft) 0,00 h
14.08.2017 10:00 21,9 C 22,8 C 19,0 C 99 % 0 % 1023 hPa 0,0 l/m 16,5 km/h (3 Bft) 0,00 h
14.08.2017 11:00 22,1 C 22,8 C 20,4 C 99 % 0 % 1023 hPa 0,0 l/m 19,1 km/h (3 Bft) 0,00 h
14.08.2017 12:00 22,3 C 22,8 C 21,6 C 99 % 0 % 1023 hPa 0,0 l/m 17,8 km/h (3 Bft) 0,00 h
14.08.2017 13:00 22,8 C 22,8 C 23,1 C 99 % 0 % 1023 hPa 0,0 l/m 15,9 km/h (3 Bft) 0,00 h
14.08.2017 14:00 22,7 C 22,8 C 24,5 C 99 % 0 % 1023 hPa 0,0 l/m 15,4 km/h (3 Bft) 0,00 h
14.08.2017 15:00 22,7 C 22,8 C 24,7 C 99 % 0 % 1022 hPa 0,0 l/m 14,2 km/h (3 Bft) 0,00 h
14.08.2017 16:00 23,0 C 22,8 C 24,7 C 99 % 0 % 1022 hPa 0,0 l/m 13,0 km/h (3 Bft) 0,00 h
14.08.2017 17:00 23,2 C 22,8 C 24,7 C 99 % 0 % 1021 hPa 0,0 l/m 9,4 km/h (2 Bft) 0,00 h
14.08.2017 18:00 23,2 C 22,8 C 24,4 C 99 % 0 % 1021 hPa 0,0 l/m 7,5 km/h (2 Bft) 0,00 h
14.08.2017 19:00 23,0 C 22,8 C 23,5 C 99 % 0 % 1021 hPa 0,0 l/m 1,2 km/h (1 Bft) 0,00 h
14.08.2017 20:00 22,8 C 22,8 C 22,5 C 99 % 0 % 1021 hPa 0,0 l/m 0,0 km/h (0 Bft) 0,00 h
14.08.2017 21:00 22,9 C 22,8 C 21,5 C 99 % 0 % 1022 hPa 0,0 l/m 0,0 km/h (0 Bft) 0,00 h
14.08.2017 22:00 22,8 C 22,8 C 20,5 C 99 % 0 % 1022 hPa 0,0 l/m 0,0 km/h (0 Bft) 0,00 h
14.08.2017 23:00 22,4 C 22,8 C 19,7 C 99 % 0 % 1022 hPa 0,0 l/m 0,0 km/h (0 Bft) 0,00 h
15.08.2017 00:00 22,2 C 22,8 C 19,1 C 99 % 0 % 1022 hPa 0,0 l/m 0,4 km/h (0 Bft) 0,00 h
15.08.2017 01:00 21,9 C 22,8 C 18,5 C 99 % 0 % 1022 hPa 0,0 l/m 1,5 km/h (1 Bft) 0,00 h
15.08.2017 02:00 21,3 C 22,8 C 18,1 C 99 % 0 % 1022 hPa 0,0 l/m 1,9 km/h (1 Bft) 0,00 h
15.08.2017 03:00 20,9 C 22,8 C 17,7 C 99 % 0 % 1022 hPa 0,0 l/m 1,3 km/h (1 Bft) 0,00 h
15.08.2017 04:00 20,6 C 22,8 C 17,3 C 99 % 0 % 1022 hPa 0,0 l/m 0,4 km/h (0 Bft) 0,00 h
15.08.2017 05:00 20,4 C 22,8 C 16,9 C 99 % 0 % 1022 hPa 0,0 l/m 0,5 km/h (0 Bft) 0,00 h
15.08.2017 06:00 20,1 C 22,8 C 16,5 C 99 % 0 % 1022 hPa 0,0 l/m 0,1 km/h (0 Bft) 0,00 h
15.08.2017 07:00 20,2 C 22,8 C 16,7 C 99 % 0 % 1022 hPa 0,0 l/m 0,7 km/h (0 Bft) 0,00 h
15.08.2017 08:00 20,7 C 22,8 C 17,4 C 99 % 0 % 1023 hPa 0,0 l/m 5,7 km/h (1 Bft) 0,00 h
15.08.2017 09:00 21,2 C 22,8 C 18,5 C 99 % 0 % 1022 hPa 0,0 l/m 12,1 km/h (2 Bft) 0,00 h
15.08.2017 10:00 21,3 C 22,8 C 20,0 C 99 % 0 % 1022 hPa 0,0 l/m 12,5 km/h (3 Bft) 0,00 h
15.08.2017 11:00 21,4 C 22,8 C 21,0 C 99 % 0 % 1022 hPa 0,0 l/m 8,5 km/h (2 Bft) 0,00 h
15.08.2017 12:00 21,5 C 22,8 C 22,1 C 99 % 0 % 1022 hPa 0,0 l/m 8,5 km/h (2 Bft) 0,00 h
15.08.2017 13:00 21,6 C 22,8 C 23,3 C 99 % 0 % 1022 hPa 0,0 l/m 6,9 km/h (2 Bft) 0,00 h
15.08.2017 14:00 21,7 C 22,8 C 25,0 C 99 % 0 % 1021 hPa 0,0 l/m 4,9 km/h (1 Bft) 0,00 h
15.08.2017 15:00 21,8 C 22,8 C 25,7 C 99 % 0 % 1021 hPa 0,0 l/m 6,4 km/h (2 Bft) 0,00 h
15.08.2017 16:00 21,8 C 22,8 C 26,0 C 99 % 0 % 1020 hPa 0,0 l/m 8,4 km/h (2 Bft) 0,00 h
15.08.2017 17:00 21,9 C 22,8 C 25,8 C 10 % 0 % 1020 hPa 0,0 l/m 5,4 km/h (1 Bft) 0,00 h
15.08.2017 18:00 22,2 C 22,8 C 25,9 C 0 % 0 % 1020 hPa 0,0 l/m 5,2 km/h (1 Bft) 0,00 h
15.08.2017 19:00 22,3 C 22,8 C 25,5 C 21 % 0 % 1020 hPa 0,0 l/m 1,7 km/h (1 Bft) 0,00 h
15.08.2017 20:00 22,3 C 22,8 C 24,6 C 91 % 0 % 1019 hPa 0,0 l/m 0,0 km/h (0 Bft) 0,00 h
15.08.2017 21:00 22,4 C 22,8 C 23,8 C 99 % 0 % 1020 hPa 0,0 l/m 0,1 km/h (0 Bft) 0,00 h
15.08.2017 22:00 22,3 C 22,8 C 23,1 C 99 % 0 % 1021 hPa 0,0 l/m 3,6 km/h (1 Bft) 0,00 h
15.08.2017 23:00 22,3 C 22,8 C 22,6 C 99 % 0 % 1020 hPa 0,0 l/m 0,1 km/h (0 Bft) 0,00 h
16.08.2017 00:00 22,3 C 22,8 C 22,0 C 99 % 0 % 1020 hPa 0,0 l/m 0,8 km/h (0 Bft) 0,00 h
16.08.2017 01:00 22,3 C 22,8 C 21,6 C 99 % 0 % 1020 hPa 0,0 l/m 4,9 km/h (1 Bft) 0,00 h
16.08.2017 02:00 22,2 C 22,8 C 21,2 C 99 % 0 % 1021 hPa 0,0 l/m 1,0 km/h (0 Bft) 0,00 h
16.08.2017 03:00 22,1 C 22,8 C 20,9 C 99 % 0 % 1022 hPa 0,0 l/m 12,9 km/h (3 Bft) 0,00 h
16.08.2017 04:00 22,1 C 22,8 C 20,8 C 99 % 0 % 1023 hPa 0,0 l/m 10,8 km/h (2 Bft) 0,00 h
16.08.2017 05:00 22,0 C 22,8 C 20,2 C 99 % 0 % 1024 hPa 1,7 l/m 4,5 km/h (1 Bft) 0,00 h
16.08.2017 06:00 22,1 C 22,8 C 19,7 C 99 % 0 % 1024 hPa 3,8 l/m 2,4 km/h (1 Bft) 0,00 h
16.08.2017 07:00 22,2 C 22,8 C 19,2 C 99 % 0 % 1024 hPa 0,7 l/m 0,2 km/h (0 Bft) 0,00 h
16.08.2017 08:00 22,2 C 22,8 C 19,1 C 99 % 0 % 1024 hPa 0,0 l/m 0,5 km/h (0 Bft) 0,00 h
16.08.2017 09:00 22,3 C 22,8 C 19,2 C 99 % 0 % 1025 hPa 0,0 l/m 1,2 km/h (1 Bft) 0,00 h
16.08.2017 10:00 22,5 C 22,8 C 19,3 C 99 % 0 % 1025 hPa 0,0 l/m 2,7 km/h (1 Bft) 0,00 h
16.08.2017 11:00 22,6 C 22,8 C 20,0 C 99 % 0 % 1025 hPa 0,0 l/m 6,2 km/h (2 Bft) 0,00 h
16.08.2017 12:00 22,6 C 22,8 C 20,5 C 99 % 0 % 1025 hPa 0,0 l/m 7,0 km/h (2 Bft) 0,00 h
16.08.2017 13:00 22,9 C 22,8 C 21,3 C 99 % 0 % 1024 hPa 0,0 l/m 7,5 km/h (2 Bft) 0,00 h
16.08.2017 14:00 22,9 C 22,8 C 22,4 C 99 % 0 % 1024 hPa 0,0 l/m 9,3 km/h (2 Bft) 0,00 h
16.08.2017 15:00 22,9 C 22,8 C 22,9 C 99 % 0 % 1024 hPa 0,0 l/m 7,2 km/h (2 Bft) 0,00 h
16.08.2017 16:00 23,0 C 22,8 C 23,0 C 99 % 0 % 1023 hPa 0,0 l/m 6,2 km/h (2 Bft) 0,00 h
16.08.2017 17:00 23,1 C 22,8 C 23,0 C 99 % 0 % 1023 hPa 0,0 l/m 3,3 km/h (1 Bft) 0,00 h
16.08.2017 18:00 23,0 C 22,8 C 22,9 C 99 % 0 % 1023 hPa 0,0 l/m 1,9 km/h (1 Bft) 0,00 h
16.08.2017 19:00 23,2 C 22,8 C 22,5 C 99 % 0 % 1023 hPa 0,0 l/m 0,2 km/h (0 Bft) 0,00 h
16.08.2017 20:00 23,3 C 22,8 C 22,0 C 99 % 0 % 1023 hPa 0,0 l/m 0,1 km/h (0 Bft) 0,00 h
16.08.2017 21:00 23,3 C 22,8 C 21,3 C 99 % 0 % 1023 hPa 0,0 l/m 0,0 km/h (0 Bft) 0,00 h
16.08.2017 22:00 22,9 C 22,8 C 20,5 C 99 % 0 % 1023 hPa 0,0 l/m 0,0 km/h (0 Bft) 0,00 h
16.08.2017 23:00 22,6 C 22,8 C 19,9 C 99 % 0 % 1023 hPa 0,0 l/m 0,0 km/h (0 Bft) 0,00 h
17.08.2017 00:00 22,4 C 22,8 C 19,4 C 99 % 0 % 1023 hPa 0,0 l/m 0,0 km/h (0 Bft) 0,00 h
17.08.2017 01:00 22,2 C 22,8 C 18,8 C 99 % 0 % 1023 hPa 0,0 l/m 0,0 km/h (0 Bft) 0,00 h
17.08.2017 02:00 22,0 C 22,8 C 18,4 C 99 % 0 % 1023 hPa 0,0 l/m 0,0 km/h (0 Bft) 0,00 h
17.08.2017 03:00 21,9 C 22,8 C 18,0 C 99 % 0 % 1022 hPa 0,0 l/m 0,0 km/h (0 Bft) 0,00 h
17.08.2017 04:00 21,7 C 22,8 C 17,5 C 99 % 0 % 1022 hPa 0,0 l/m 0,0 km/h (0 Bft) 0,00 h
17.08.2017 05:00 21,4 C 22,8 C 17,2 C 99 % 0 % 1022 hPa 0,0 l/m 0,0 km/h (0 Bft) 0,00 h
17.08.2017 06:00 20,9 C 22,8 C 17,0 C 99 % 0 % 1022 hPa 0,0 l/m 0,0 km/h (0 Bft) 0,00 h
17.08.2017 07:00 21,4 C 22,8 C 17,2 C 99 % 0 % 1022 hPa 0,0 l/m 0,0 km/h (0 Bft) 0,00 h
17.08.2017 08:00 21,8 C 22,8 C 17,9 C 99 % 0 % 1022 hPa 0,0 l/m 5,0 km/h (1 Bft) 0,00 h
17.08.2017 09:00 22,0 C 22,8 C 18,9 C 99 % 0 % 1022 hPa 0,0 l/m 9,1 km/h (2 Bft) 0,00 h
17.08.2017 10:00 22,1 C 22,8 C 20,7 C 99 % 0 % 1022 hPa 0,0 l/m 13,1 km/h (3 Bft) 0,00 h
17.08.2017 11:00 22,2 C 22,8 C 21,7 C 99 % 0 % 1022 hPa 0,0 l/m 11,2 km/h (2 Bft) 0,00 h
17.08.2017 12:00 22,4 C 22,8 C 22,8 C 99 % 0 % 1022 hPa 0,0 l/m 9,7 km/h (2 Bft) 0,00 h
17.08.2017 13:00 22,6 C 22,8 C 23,7 C 99 % 0 % 1021 hPa 0,0 l/m 8,4 km/h (2 Bft) 0,00 h
17.08.2017 14:00 22,7 C 22,8 C 25,4 C 99 % 0 % 1021 hPa 0,0 l/m 9,0 km/h (2 Bft) 0,00 h
17.08.2017 15:00 22,8 C 22,8 C 25,7 C 99 % 0 % 1020 hPa 0,0 l/m 5,9 km/h (2 Bft) 0,00 h
17.08.2017 16:00 22,9 C 22,8 C 25,7 C 99 % 0 % 1020 hPa 0,0 l/m 4,6 km/h (1 Bft) 0,00 h
17.08.2017 17:00 23,2 C 22,8 C 25,5 C 99 % 0 % 1020 hPa 0,0 l/m 4,4 km/h (1 Bft) 0,00 h
17.08.2017 18:00 23,1 C 22,8 C 25,2 C 99 % 0 % 1020 hPa 0,0 l/m 2,4 km/h (1 Bft) 0,00 h
17.08.2017 19:00 23,1 C 22,8 C 24,8 C 99 % 0 % 1020 hPa 0,0 l/m 0,0 km/h (0 Bft) 0,00 h
17.08.2017 20:00 23,1 C 22,8 C 24,2 C 99 % 0 % 1020 hPa 0,0 l/m 0,0 km/h (0 Bft) 0,00 h
17.08.2017 21:00 23,1 C 22,8 C 23,5 C 99 % 0 % 1020 hPa 0,0 l/m 0,0 km/h (0 Bft) 0,00 h
17.08.2017 22:00 22,9 C 22,8 C 22,8 C 99 % 0 % 1020 hPa 0,0 l/m 0,0 km/h (0 Bft) 0,00 h
17.08.2017 23:00 22,6 C 22,8 C 22,1 C 99 % 0 % 1020 hPa 0,0 l/m 0,0 km/h (0 Bft) 0,00 h
18.08.2017 00:00 22,3 C 22,8 C 21,4 C 99 % 0 % 1020 hPa 0,0 l/m 0,0 km/h (0 Bft) 0,00 h
18.08.2017 01:00 22,1 C 22,8 C 20,9 C 99 % 0 % 1020 hPa 0,0 l/m 0,0 km/h (0 Bft) 0,00 h
18.08.2017 02:00 21,9 C 22,8 C 20,5 C 99 % 0 % 1020 hPa 0,0 l/m 0,0 km/h (0 Bft) 0,00 h
18.08.2017 03:00 21,7 C 22,8 C 20,1 C 99 % 0 % 1020 hPa 0,0 l/m 0,0 km/h (0 Bft) 0,00 h
18.08.2017 04:00 21,5 C 22,8 C 19,7 C 99 % 0 % 1020 hPa 0,0 l/m 0,0 km/h (0 Bft) 0,00 h
18.08.2017 05:00 21,3 C 22,8 C 19,4 C 99 % 0 % 1020 hPa 0,0 l/m 0,0 km/h (0 Bft) 0,00 h
18.08.2017 06:00 21,2 C 22,8 C 19,0 C 99 % 0 % 1020 hPa 0,0 l/m 0,0 km/h (0 Bft) 0,00 h
18.08.2017 07:00 21,7 C 22,8 C 19,0 C 99 % 0 % 1020 hPa 0,0 l/m 0,0 km/h (0 Bft) 0,00 h
18.08.2017 08:00 22,0 C 22,8 C 19,6 C 99 % 0 % 1020 hPa 0,0 l/m 1,4 km/h (1 Bft) 0,00 h
18.08.2017 09:00 22,1 C 22,8 C 20,4 C 99 % 0 % 1020 hPa 0,0 l/m 3,5 km/h (1 Bft) 0,00 h
18.08.2017 10:00 22,2 C 22,8 C 21,5 C 99 % 0 % 1020 hPa 0,0 l/m 4,3 km/h (1 Bft) 0,00 h
18.08.2017 11:00 22,3 C 22,8 C 22,7 C 99 % 0 % 1019 hPa 0,0 l/m 6,6 km/h (2 Bft) 0,00 h
18.08.2017 12:00 22,6 C 22,8 C 23,7 C 99 % 0 % 1018 hPa 0,0 l/m 7,7 km/h (2 Bft) 0,00 h
18.08.2017 13:00 22,8 C 22,8 C 25,3 C 99 % 0 % 1018 hPa 0,0 l/m 10,3 km/h (2 Bft) 0,00 h
18.08.2017 14:00 23,0 C 22,8 C 26,5 C 99 % 0 % 1017 hPa 0,0 l/m 8,9 km/h (2 Bft) 0,00 h
18.08.2017 15:00 23,1 C 22,8 C 27,1 C 99 % 0 % 1016 hPa 0,0 l/m 9,0 km/h (2 Bft) 0,00 h
18.08.2017 16:00 23,4 C 22,8 C 27,4 C 99 % 0 % 1016 hPa 0,0 l/m 8,3 km/h (2 Bft) 0,00 h
18.08.2017 17:00 23,4 C 22,8 C 27,4 C 25 % 0 % 1015 hPa 0,0 l/m 7,7 km/h (2 Bft) 0,00 h
18.08.2017 18:00 23,4 C 22,8 C 27,3 C 0 % 0 % 1014 hPa 0,0 l/m 8,1 km/h (2 Bft) 0,00 h
18.08.2017 19:00 23,4 C 22,8 C 26,8 C 1 % 0 % 1013 hPa 0,0 l/m 4,4 km/h (1 Bft) 0,00 h
18.08.2017 20:00 23,4 C 22,8 C 25,8 C 48 % 0 % 1012 hPa 0,0 l/m 0,3 km/h (0 Bft) 0,00 h
18.08.2017 21:00 23,4 C 22,8 C 24,9 C 99 % 0 % 1012 hPa 0,0 l/m 0,8 km/h (0 Bft) 0,00 h
18.08.2017 22:00 23,4 C 22,8 C 23,3 C 99 % 0 % 1014 hPa 3,8 l/m 10,9 km/h (2 Bft) 0,00 h
18.08.2017 23:00 23,3 C 22,8 C 19,1 C 99 % 0 % 1019 hPa 4,8 l/m 13,5 km/h (3 Bft) 0,00 h
19.08.2017 00:00 23,3 C 22,8 C 18,9 C 99 % 0 % 1020 hPa 0,3 l/m 0,5 km/h (0 Bft) 0,00 h
19.08.2017 01:00 23,3 C 22,8 C 18,6 C 99 % 0 % 1020 hPa 1,4 l/m 1,0 km/h (0 Bft) 0,00 h
19.08.2017 02:00 23,3 C 22,8 C 18,2 C 99 % 0 % 1020 hPa 2,4 l/m 2,0 km/h (1 Bft) 0,00 h
19.08.2017 03:00 23,2 C 22,8 C 18,2 C 99 % 0 % 1020 hPa 0,0 l/m 0,3 km/h (0 Bft) 0,00 h
19.08.2017 04:00 23,2 C 22,8 C 18,3 C 99 % 0 % 1020 hPa 0,0 l/m 0,0 km/h (0 Bft) 0,00 h
19.08.2017 05:00 23,2 C 22,8 C 18,1 C 99 % 0 % 1020 hPa 0,0 l/m 0,0 km/h (0 Bft) 0,00 h
19.08.2017 06:00 23,1 C 22,8 C 18,0 C 99 % 0 % 1020 hPa 0,0 l/m 0,0 km/h (0 Bft) 0,00 h
19.08.2017 07:00 23,1 C 22,8 C 17,9 C 99 % 0 % 1020 hPa 0,0 l/m 0,0 km/h (0 Bft) 0,00 h
19.08.2017 08:00 23,1 C 22,8 C 18,0 C 99 % 0 % 1021 hPa 0,3 l/m 0,0 km/h (0 Bft) 0,00 h
19.08.2017 09:00 22,8 C 22,8 C 17,9 C 99 % 0 % 1022 hPa 0,3 l/m 0,0 km/h (0 Bft) 0,00 h
19.08.2017 10:00 22,6 C 22,8 C 18,1 C 99 % 0 % 1022 hPa 0,0 l/m 1,7 km/h (1 Bft) 0,00 h
19.08.2017 11:00 23,0 C 22,8 C 18,4 C 99 % 0 % 1021 hPa 0,0 l/m 0,5 km/h (0 Bft) 0,00 h
19.08.2017 12:00 22,9 C 22,8 C 18,3 C 99 % 0 % 1022 hPa 0,3 l/m 1,4 km/h (1 Bft) 0,00 h
19.08.2017 13:00 23,2 C 22,8 C 18,8 C 99 % 0 % 1021 hPa 0,0 l/m 3,3 km/h (1 Bft) 0,00 h
19.08.2017 14:00 23,3 C 22,8 C 18,8 C 99 % 0 % 1022 hPa 0,0 l/m 1,9 km/h (1 Bft) 0,00 h
19.08.2017 15:00 23,3 C 22,8 C 18,7 C 99 % 0 % 1022 hPa 1,0 l/m 0,6 km/h (0 Bft) 0,00 h
19.08.2017 16:00 23,3 C 22,8 C 18,5 C 99 % 0 % 1022 hPa 0,0 l/m 0,9 km/h (0 Bft) 0,00 h
19.08.2017 17:00 23,4 C 22,8 C 18,2 C 99 % 0 % 1022 hPa 0,0 l/m 1,3 km/h (1 Bft) 0,00 h
19.08.2017 18:00 23,4 C 22,8 C 18,0 C 99 % 0 % 1022 hPa 0,0 l/m 1,3 km/h (1 Bft) 0,00 h
19.08.2017 19:00 23,4 C 22,8 C 17,9 C 99 % 0 % 1022 hPa 0,0 l/m 0,2 km/h (0 Bft) 0,00 h
19.08.2017 20:00 23,4 C 22,8 C 17,7 C 99 % 0 % 1023 hPa 0,0 l/m 0,3 km/h (0 Bft) 0,00 h
19.08.2017 21:00 23,5 C 22,8 C 17,6 C 99 % 0 % 1023 hPa 0,0 l/m 0,1 km/h (0 Bft) 0,00 h
19.08.2017 22:00 23,4 C 22,8 C 17,4 C 99 % 0 % 1023 hPa 0,0 l/m 0,4 km/h (0 Bft) 0,00 h
19.08.2017 23:00 23,4 C 22,8 C 17,1 C 99 % 0 % 1023 hPa 0,0 l/m 0,0 km/h (0 Bft) 0,00 h
20.08.2017 00:00 23,4 C 22,8 C 16,9 C 99 % 0 % 1022 hPa 0,0 l/m 0,0 km/h (0 Bft) 0,00 h
20.08.2017 01:00 23,2 C 22,8 C 16,7 C 99 % 0 % 1023 hPa 0,0 l/m 0,0 km/h (0 Bft) 0,00 h
20.08.2017 02:00 22,7 C 22,8 C 16,6 C 99 % 0 % 1023 hPa 0,0 l/m 0,1 km/h (0 Bft) 0,00 h
20.08.2017 03:00 22,2 C 22,8 C 16,5 C 99 % 0 % 1023 hPa 0,0 l/m 0,3 km/h (0 Bft) 0,00 h
20.08.2017 04:00 21,8 C 22,8 C 16,4 C 99 % 0 % 1023 hPa 0,0 l/m 0,0 km/h (0 Bft) 0,00 h
20.08.2017 05:00 21,6 C 22,8 C 16,3 C 99 % 0 % 1023 hPa 0,0 l/m 0,3 km/h (0 Bft) 0,00 h
20.08.2017 06:00 21,4 C 22,8 C 16,3 C 99 % 0 % 1023 hPa 0,0 l/m 0,6 km/h (0 Bft) 0,00 h
20.08.2017 07:00 21,2 C 22,8 C 16,3 C 99 % 0 % 1024 hPa 0,0 l/m 1,4 km/h (1 Bft) 0,00 h
20.08.2017 08:00 20,9 C 22,8 C 16,4 C 99 % 0 % 1024 hPa 0,0 l/m 4,1 km/h (1 Bft) 0,00 h
20.08.2017 09:00 20,7 C 22,8 C 16,6 C 99 % 0 % 1025 hPa 0,0 l/m 9,2 km/h (2 Bft) 0,00 h
20.08.2017 10:00 21,3 C 22,8 C 17,3 C 99 % 0 % 1025 hPa 0,0 l/m 8,5 km/h (2 Bft) 0,00 h
20.08.2017 11:00 21,5 C 22,8 C 17,7 C 99 % 0 % 1025 hPa 0,0 l/m 10,0 km/h (2 Bft) 0,00 h
20.08.2017 12:00 21,4 C 22,8 C 18,1 C 99 % 0 % 1025 hPa 0,0 l/m 11,4 km/h (2 Bft) 0,00 h
20.08.2017 13:00 21,9 C 22,8 C 18,7 C 99 % 0 % 1024 hPa 0,0 l/m 12,1 km/h (2 Bft) 0,00 h
20.08.2017 14:00 22,0 C 22,8 C 19,6 C 99 % 0 % 1024 hPa 0,0 l/m 13,3 km/h (3 Bft) 0,00 h
20.08.2017 15:00 22,2 C 22,8 C 19,7 C 99 % 0 % 1024 hPa 0,0 l/m 11,7 km/h (2 Bft) 0,00 h
20.08.2017 16:00 22,3 C 22,8 C 19,9 C 99 % 0 % 1024 hPa 0,0 l/m 9,9 km/h (2 Bft) 0,00 h
20.08.2017 17:00 22,4 C 22,8 C 19,9 C 99 % 0 % 1024 hPa 0,0 l/m 9,0 km/h (2 Bft) 0,00 h
20.08.2017 18:00 22,5 C 22,8 C 19,6 C 99 % 0 % 1024 hPa 0,0 l/m 6,8 km/h (2 Bft) 0,00 h
20.08.2017 19:00 22,5 C 22,8 C 19,0 C 99 % 0 % 1025 hPa 0,0 l/m 2,9 km/h (1 Bft) 0,00 h
20.08.2017 20:00 22,5 C 22,8 C 18,3 C 99 % 0 % 1025 hPa 0,0 l/m 0,6 km/h (0 Bft) 0,00 h
20.08.2017 21:00 22,7 C 22,8 C 17,2 C 99 % 0 % 1025 hPa 0,0 l/m 0,0 km/h (0 Bft) 0,00 h
20.08.2017 22:00 22,8 C 22,8 C 16,5 C 99 % 0 % 1025 hPa 0,0 l/m 0,0 km/h (0 Bft) 0,00 h
20.08.2017 23:00 22,8 C 22,8 C 15,8 C 99 % 0 % 1026 hPa 0,0 l/m 0,0 km/h (0 Bft) 0,00 h
Min-Datum _ 15.08.17 14.08.17 14.08.17 15.08.17 - 18.08.17 - 14.08.17 -
_ Min-Zeit 06:36 00:02 06:48 17:06 - 19:54 - 00:02 -
Minimum _ 20,0 C 22,8 C 14,8 C 0 % - 1012 hPa - 0,0 km/h (0 Bft) -
Max-Datum _ 18.08.17 14.08.17 18.08.17 14.08.17 14.08.17 20.08.17 18.08.17 18.08.17 14.08.17
_ Max-Zeit 17:00 00:02 16:33 00:02 00:02 22:42 23:02 22:53 00:02
Maximum _ 23,5 C 22,8 C 27,8 C 99 % 0 % 1026 hPa 4,8 l/m 68,4 km/h
N (8 Bft)
0,00 h
Durchschnitt _ 22,4 C 22,8 C 20,3 C 95 % #0 min. 1022 hPa #20,9 l/m 3,8 km/h (1 Bft) #0 min.